Content
SEND FEEDBACK

Daily
Averages
Monthly
Summary
Canada

QUEBEC CITY, QUEBEC


Home > North America > Canada > Quebec
Elevation: 239 feet     Latitude: 46 48N     Longitude: 071 23W

WEATHER
 
SELECT A DAY
Number of Records: 194,992;   Date Range: 6/30/96 - 9/29/14
 
SHARE

PRINT THIS DATA

[ ← Previous Day ]
WEATHER ALMANAC - JUNE 29, 2013
[ Next Day → ]
[ °C ]   °F
We're sorry. There is no daily almanac available for Quebec City, Quebec on June 29, 2013.
WEATHER BY HOUR - JUNE 29, 2013
[ °C ]   °F
Local TimeTemperatureDewpointHumidityBarometerVisibilityWind DirectionWind SpeedGust SpeedPrecipitationEventsConditions
1:00 AM53.6 °F53.6 °F100 %29.60 in8.0 miENE (60°)20.7 mph31.1 mphRainLight Rain
2:00 AM54.0 °F53.0 °F95 %29.57 inEast (80°)12.7 mph
2:00 AM53.6 °F51.8 °F94 %29.60 in8.0 miENE (70°)18.4 mph25.3 mphRainLight Rain
2:30 AM53.6 °F0.0 °F3.0 miENE (60°)17.3 mph26.5 mphRainRain
2:57 AM53.6 °F0.0 °F5.0 miENE (60°)24.2 mph35.7 mphRainLight Rain
3:00 AM53.6 °F51.8 °F94 %29.58 in5.0 miENE (60°)24.2 mph35.7 mphRainLight Rain
4:00 AM53.6 °F51.8 °F94 %29.58 in8.0 miENE (70°)17.3 mph25.3 mphRainLight Rain
5:00 AM53.6 °F51.8 °F94 %29.59 in8.0 miENE (70°)17.3 mph27.6 mphRainLight Rain
5:00 AM54.0 °F52.0 °F92 %29.57 inEast (80°)11.5 mph
6:00 AM53.6 °F51.8 °F94 %29.60 in15.0 miENE (70°)12.7 mph25.3 mphLight Drizzle
7:00 AM53.6 °F51.8 °F94 %29.61 in8.0 miENE (60°)17.3 mph25.3 mphRainLight Rain
8:00 AM54.0 °F53.0 °F96 %29.59 inEast (80°)9.2 mph
8:00 AM53.6 °F51.8 °F94 %29.61 in8.0 miENE (70°)13.8 mph25.3 mphRainLight Rain
9:00 AM55.4 °F53.6 °F94 %29.62 in15.0 miENE (70°)13.8 mphRainLight Rain
10:00 AM57.2 °F53.6 °F88 %29.62 in15.0 miENE (70°)13.8 mphOvercast
11:00 AM58.0 °F55.0 °F86 %29.59 inEast (90°)9.2 mph
11:00 AM57.2 °F53.6 °F88 %29.62 in15.0 miENE (70°)11.5 mphOvercast
12:00 PM59.0 °F53.6 °F82 %29.62 in15.0 miEast (80°)12.7 mphOvercast
1:00 PM60.8 °F55.4 °F82 %29.61 in15.0 miEast (90°)11.5 mphOvercast
2:00 PM61.0 °F56.0 °F79 %29.58 inEast (100°)11.5 mph
2:00 PM60.8 °F55.4 °F82 %29.60 in15.0 miEast (90°)10.4 mph17.3 mphOvercast
3:00 PM60.8 °F55.4 °F82 %29.60 in15.0 miENE (70°)15.0 mph21.9 mphOvercast
4:00 PM59.0 °F53.6 °F82 %29.61 in15.0 miNE (50°)15.0 mph23.0 mphMostly Cloudy
5:00 PM58.0 °F54.0 °F82 %29.60 inEast (80°)9.2 mph
5:00 PM59.0 °F53.6 °F82 %29.63 in15.0 miENE (60°)11.5 mph18.4 mphMostly Cloudy
6:00 PM57.2 °F53.6 °F88 %29.64 in15.0 miEast (80°)9.2 mphOvercast
7:00 PM57.2 °F53.6 °F88 %29.64 in15.0 miEast (90°)10.4 mphOvercast
8:00 PM56.0 °F53.0 °F87 %29.63 inEast (80°)5.8 mph
8:00 PM55.4 °F53.6 °F94 %29.66 in15.0 miENE (70°)8.1 mphOvercast
9:00 PM55.4 °F51.8 °F88 %29.67 in15.0 miENE (60°)10.4 mphOvercast
10:00 PM55.4 °F51.8 °F88 %29.69 in15.0 miENE (70°)11.5 mphOvercast
10:34 PM55.4 °F0.0 °F15.0 miENE (70°)5.8 mphOvercast
11:00 PM54.0 °F52.0 °F92 %29.66 inEast (80°)5.8 mph
11:00 PM55.4 °F51.8 °F88 %29.68 in15.0 miENE (70°)10.4 mphOvercast
11:52 PM55.4 °F0.0 °F15.0 miENE (60°)6.9 mphOvercast
Hourly data recorded from CYQB, located miles away from Quebec City, Quebec







STORIES FROM OUR PARTNERS